Showing default

YUNHAI 2-1E, 43913

Orbit data source: Space-Track

YUNHAI 2-1E, 43913 is a payload satellite owned by CASC (CN) in LEO that was launched on Sat, 29 Dec 2018 UTC via a CHANG ZHENG 2D/YZ-3 launch vehicle from the Jiuquan Satellite Launch Center, China (JSC). Payload-class satellites include a variety of spacecraft equipped with specific instruments for various scientific and technological missions. These include communications satellites like Starlink; space stations such as the ISS; scientific satellites like the Hubble; Earth observation satellites from companies like Planet Labs, Umbra, and HawkEye 360; GPS; miniature CubeSats for education and research; and military/defense satellites.

Loading next visibility...
Identifier
43913, 2018-112E
Orbit
LEO
Country
Flag of CNCN / PRC
Related business
Manufacturer
DFH Shenzhen
Mission
Operational Defense Meteo Radio Occ.
Bus & Motor
YH-2, Unknown motor
Mass
~100 kg wet, ~100 kg dry
Launch date (UTC)
2018-12-29 (7 years ago)
Launch vehicle
CHANG ZHENG 2D/YZ-3
Launch site
Jiuquan Satellite Launch Center, China (JSC)
Object type
Payload
Rocket body
Debris
Shape & HBR
Box + 2 Pan, 0.5 m
Radar Cross Section
0.166 m², Large (>1 m²)

Expand to show TLE details & history
Last TLE update: 9 hours ago

TLE from 9 hours ago
0 YUNHAI 2-1E
1 43913U 18112E   25258.23931788  .00000203  00000-0  14375-3 0  9994
2 43913  50.0058 253.7780 0004854 120.8631 239.2763 14.28831891349849
Epoch: 2025-09-15T05:44Z
TLE epoch observation values (Epoch: 2025-09-15T05:44:37.064Z)
Latitude
0.00003°
Longitude
173.17677°
Altitude
797.949 km
Speed
7.455 km/s
True Right ascension
16h 55m 06s
True Declination
0° 00' 00"
Sunlit
Object was in daylight at epoch
Visualization orbit readout
Latitude
Unknown
Longitude
Unknown
Altitude
Unknown
Speed
Unknown
Apparent Right ascension
Unknown
Apparent Declination
Unknown
Sunlit
N/A
Visualization observer readout
Local Sidereal Time
07:38:33
Azimuth
Unknown
Elevation
Unknown
Doppler factor
Unknown
Orbital elements
Apogee altitude
799.859 km
Perigee altitude
792.894 km
Semi-major axis
7,174.514 km
Eccentricity
0.00049
Inclination
50.0058°
RAAN
253.778°
Arg. of periapsis
120.8631°
True anomaly
239.2285°
Mean anomaly
239.2763°
Eccentric anomaly
239.2524°
Mean motion
3.57153 °/min
Orbital period
100.8 mins
BSTAR
0.00014375
Loading maneuver chart data...
Computing Atmospheric mass density...
Loading historical data...
Loading historical data...
Loading historical data...
Loading historical data...
Loading historical data...
Loading historical data...
Loading historical data...

Documentation

Showing up to 5 results
|